North Conway, NH

3:06 PM EST on November 15, 2019 (GMT -0500)
North Conway

Weather History for KCWN - September, 2019

Change the Weather History Date:

Friday, September 20, 2019

  Actual Average (KIZG) Record (KIZG)
Temperature  
Mean Temperature 64 °F -  
Max Temperature 77 °F 68 °F 84 °F (2016)
Min Temperature 51 °F 42 °F 30 °F (2008)
Degree Days  
Heating Degree Days 1    
Growing Degree Days 14 (Base 50)    
Moisture  
Dew Point 34 °F    
Average Humidity 39    
Maximum Humidity 100    
Minimum Humidity 12    
Precipitation  
Precipitation 0.00 in - - ()
Sea Level Pressure  
Sea Level Pressure 29.40 in    
Wind  
Wind Speed 8 mph (SSE)    
Max Wind Speed 21 mph    
Max Gust Speed 43 mph    
Visibility 10 miles    
Events      
Averages and records for this station are not official NWS values.
T = Trace of Precipitation, MM = Missing Value Source: NWS Daily Summary

Daily Weather History Graph

Daily Weather History Graph

Search for Another Location

Airport or City:

Astronomy

Sep. 20, 2019 Rise Set
Actual Time 6:29 AM EDT 6:46 PM EDT
Civil Twilight 6:00 AM EDT 7:15 PM EDT
Nautical Twilight 5:26 AM EDT 7:48 PM EDT
Astronomical Twilight 4:51 AM EDT 8:23 PM EDT
Moon 10:21 PM EDT (9/20) 12:42 PM EDT (9/20)
Length of Visible Light 13h 14m
Length of Day
12h 17m
Waning Gibbous, 65% of the Moon is Illuminated
Sep 20
Waning Gibbous
Sep 21
Last Quarter
Sep 28
New
Oct 5
First Quarter
Oct 13
Full

Hourly Weather History & Observations

Time (EDT) Temp. Dew Point Humidity Pressure Visibility Wind Dir Wind Speed Gust Speed Precip Events Conditions
12:58 AM 61.9 °F 49.6 °F 64% 29.47 in 10.0 mi South 6.9 mph - N/A   Scattered Clouds
1:58 AM 60.1 °F 49.6 °F 68% 29.45 in 10.0 mi Calm Calm - N/A   Clear
2:58 AM 57.9 °F 49.1 °F 72% 29.47 in 10.0 mi North 6.9 mph - N/A   Scattered Clouds
4:58 AM 54.3 °F 48.6 °F 81% 29.46 in 10.0 mi Calm Calm - N/A   Clear
5:58 AM 53.8 °F 49.6 °F 86% 29.47 in 10.0 mi Calm Calm - N/A   Mostly Cloudy
6:58 AM 52.5 °F 50.5 °F 93% 29.47 in 10.0 mi Calm Calm - N/A   Mostly Cloudy
7:58 AM 52.5 °F 49.1 °F 88% 29.48 in 10.0 mi Calm Calm - N/A   Clear
8:23 AM 51.8 °F 51.8 °F 100% 29.48 in 10.0 mi Calm Calm - N/A   Mostly Cloudy
8:58 AM 52.2 °F 50.0 °F 92% 29.48 in 10.0 mi SE 3.5 mph - N/A   Scattered Clouds
9:58 AM 58.5 °F 46.6 °F 65% 29.44 in 10.0 mi SSW 8.1 mph - N/A   Clear
10:58 AM 63.0 °F 47.8 °F 58% 29.46 in 10.0 mi SSE 8.1 mph - N/A   Unknown
11:58 AM 67.1 °F 50.4 °F 55% 29.43 in 10.0 mi SE 6.9 mph - N/A   Unknown
12:58 PM 70.5 °F 34.3 °F 26% 29.41 in 10.0 mi SE 6.9 mph - N/A   Unknown
1:58 PM 76.3 °F 32.7 °F 20% 29.37 in 10.0 mi East 9.2 mph 25.3 mph N/A   Unknown
2:07 PM 77.0 °F 28.4 °F 17% 29.39 in 10.0 mi SSE 19.6 mph 28.8 mph N/A   Unknown
2:14 PM 75.2 °F 28.4 °F 18% 29.37 in 10.0 mi ESE 13.8 mph 28.8 mph N/A   Unknown
2:31 PM 75.2 °F 28.4 °F 18% 29.37 in 10.0 mi South 19.6 mph 42.6 mph N/A   Unknown
2:58 PM 75.6 °F 27.7 °F 17% 29.37 in 10.0 mi SSE 16.1 mph 28.8 mph N/A   Unknown
3:50 PM 77.0 °F 24.8 °F 14% 29.36 in 10.0 mi SSE 16.1 mph 41.4 mph N/A   Unknown
3:58 PM 76.6 °F 24.3 °F 14% 29.34 in 10.0 mi SSE 19.6 mph 34.5 mph N/A   Unknown
4:11 PM 77.0 °F 24.8 °F 14% 29.33 in 10.0 mi South 18.4 mph 27.6 mph N/A   Unknown
4:29 PM 77.0 °F 24.8 °F 14% 29.34 in 10.0 mi SE 15.0 mph 35.7 mph N/A   Unknown
4:33 PM 77.0 °F 24.8 °F 14% 29.34 in 10.0 mi South 16.1 mph 25.3 mph N/A   Unknown
4:58 PM 77.9 °F 23.4 °F 13% 29.33 in 10.0 mi SE 20.7 mph 28.8 mph N/A   Unknown
5:25 PM 77.0 °F 21.2 °F 12% 29.32 in 10.0 mi ESE 18.4 mph 29.9 mph N/A   Unknown
5:38 PM - - N/A% - 10.0 mi South 19.6 mph 28.8 mph N/A   Unknown
5:58 PM - - N/A% - 10.0 mi SE 13.8 mph 26.5 mph N/A   Clear
6:58 PM 73.8 °F 20.3 °F 13% 29.36 in 10.0 mi SE 11.5 mph 26.5 mph N/A   Clear
6:59 PM 73.4 °F 19.4 °F 13% 29.36 in 10.0 mi ESE 16.1 mph 28.8 mph N/A   Clear
7:58 PM 72.7 °F 17.8 °F 12% 29.38 in 10.0 mi South 11.5 mph 24.2 mph N/A   Clear
8:58 PM 71.1 °F 18.7 °F 14% 29.38 in 10.0 mi SE 10.4 mph 21.9 mph N/A   Clear
9:58 PM 69.1 °F 18.7 °F 15% 29.37 in 10.0 mi SSE 17.3 mph 27.6 mph N/A   Clear
10:58 PM 68.2 °F 19.2 °F 15% 29.36 in 10.0 mi SSE 20.7 mph 29.9 mph N/A   Clear